Notices

What's New in latest Release from April 7th, 2021:

- Updated Glossary, including Speed of Maximum Gust, and Total Hourly Precipitation

- Updated national and regional climate services offices contacts and prices information

- Addition of station inventory lists for 1981-2010, 1971-2000, and 1961-1990 Normals.

If you haven't already, please take our survey and provide feedback about our website: https://eccc.sondage-survey.ca/f/LanguageSelection.aspx?s=442ca660-fcf1-47c0-95a9-59707d6fd709

Hourly Data Report for October 11, 2020

L'ASSOMPTION
QUEBEC
Current Station Operator: ECCC - MSC

45°48'34.000" N
73°26'05.000" W
21.00 m
7014160
71524
WEW

Download Data

Hourly Data (October 2020)
Hourly Data Report for October 11, 2020
TIME
LST
Temp Definition
°C
Dew Point Definition
°C
Rel Hum Definition
%
Precip. Amount Definition
mm

Wind Dir Definition
10's deg

Wind Spd Definition
km/h
Visibility Definition
km
Stn Press Definition
kPa
Hmdx Definition


Wind Chill Definition


Weather Definition


00:00 7.0 2.4 72 0.0 30 10   101.45     LegendNANA
01:00 5.7 1.7 75 0.0 31 11   101.55     LegendNANA
02:00 5.7 1.6 75 0.0 32 9   101.66     LegendNANA
03:00 4.8 -0.6 68 0.0 34 8   101.78     LegendNANA
04:00 4.3 -1.3 67 0.0 1 7   101.89     LegendNANA
05:00 3.0 0.4 82 0.0 7 3   102.02     LegendNANA
06:00 0.5 -1.2 88 0.0 21 3   102.18     LegendNANA
07:00 4.2 1.2 81 0.0 15 2   102.29     LegendNANA
08:00 5.1 1.2 76 0.0 35 2   102.40     LegendNANA
09:00 6.2 0.4 66 0.0 35 9   102.40     LegendNANA
10:00 6.9 -1.7 54 0.0 3 12   102.44     LegendNANA
11:00 7.7 -2.3 49 0.0 3 13   102.48     LegendNANA
12:00 8.4 -3.7 42 0.0 2 11   102.49     LegendNANA
13:00 9.1 -2.0 46 0.0 9 11   102.46     LegendNANA
14:00 9.7 -2.5 42 0.0 12 7   102.46     LegendNANA
15:00 9.4 -3.9 39 0.0 10 6   102.44     LegendNANA
16:00 9.4 -4.3 38 0.0 6 1   102.42     LegendNANA
17:00 8.3 -3.1 44 0.0 7 3   102.48     LegendNANA
18:00 4.5 -0.1 72 0.0 14 2   102.56     LegendNANA
19:00 3.0 0.5 83 0.0 7 3   102.60     LegendNANA
20:00 3.3 0.5 82 0.0 3 3   102.60     LegendNANA
21:00 3.0 -0.3 79 0.0 3 2   102.61     LegendNANA
22:00 1.4 -0.3 88 0.0 3 3   102.59     LegendNANA
23:00 0.5 -0.3 95 0.0 35 4   102.59     LegendNANA

Notes on Data Quality.

Legend

  • E = Estimated
  • M = Missing
  • NA = Not Available*
  • [empty] = Indicates an unobserved value
Date modified: